Flag for Germany Weather past 2 weeks in Lutherstadt Eisleben, Saxony-Anhalt, Germany

Now
73 °F

Scattered clouds.


Feels Like: 77 °F
Forecast: 59 / 75 °F
Wind: 3 mph from Southeast

Location: Leipzig-Schkeuditz

Current Time: Sep 18, 2014 at 5:53:10 PM

Latest Report: Sep 18, 2014 at 5:00 PM


Visibility: 19 mi

Pressure: 29.91 "Hg

Humidity: 56%

Dew point: 57 °F

Location of Lutherstadt EislebenLocation

Historic Weather in Lutherstadt Eisleben — Graph

°F

Lutherstadt Eisleben temperature yesterday

Maximum temperature yesterday: 75 °F (at 4:00 PM)
Minimum temperature yesterday: 56 °F (at 7:00 AM)
Average temperature yesterday: 65 °F

Past Weeks' High & Low Weather Summary

 TemperatureHumidityPressure
High80 °F (Sep 6, 4:00 PM)99% (Sep 13, 6:00 AM)30.22 "Hg (Sep 13, 6:00 AM)
Low51 °F (Sep 9, 7:00 AM)40% (Sep 17, 5:00 PM)29.85 "Hg (Sep 6, 4:00 PM)
Average62 °F84%30.03 "Hg
* Reported Sep 3 4:00 PM — Sep 18 4:00 PM, Lutherstadt Eisleben, Weather by CustomWeather, © 2014

Note: Actual official high and low records may vary slightly from our data, if they occured in-between our weather recording intervals... More about our weather records

Advertising

Lutherstadt Eisleben weather history for previous 24 hours

 ConditionsComfort  
Time TempWeatherWind HumidityBarometerVisibility
4:00 PM
Sep 18
73 °FPartly sunny.3 mph60%29.91 "Hg19 mi
3:00 PM73 °FScattered clouds.3 mph56%29.91 "Hg17 mi
2:00 PM73 °FScattered clouds.3 mph56%29.92 "Hg19 mi
1:00 PM71 °FScattered clouds.3 mph61%29.93 "Hg22 mi
12:00 PM69 °FScattered clouds.2 mph62%29.93 "Hg22 mi
11:00 AM66 °FScattered clouds.2 mph67%29.94 "Hg22 mi
10:00 AM63 °FScattered clouds.2 mph76%29.94 "Hg19 mi
9:00 AM60 °FScattered clouds.3 mph83%29.94 "Hg19 mi
8:00 AM55 °FPassing clouds.2 mph92%29.94 "Hg16 mi
7:00 AM53 °FPassing clouds.3 mph93%29.94 "Hg9 mi
6:00 AM53 °FClear.3 mph93%29.94 "Hg16 mi
5:00 AM55 °FClear.3 mph92%29.94 "Hg19 mi
4:00 AM56 °FClear.5 mph89%29.94 "Hg19 mi
3:00 AM56 °FClear.3 mph89%29.95 "Hg19 mi
2:00 AM56 °FClear.5 mph90%29.95 "Hg22 mi
1:00 AM57 °FClear.5 mph88%29.96 "Hg22 mi
12:00 AM58 °FClear.3 mph84%29.96 "Hg22 mi
10:00 PM
Sep 17
60 °FClear.5 mph80%29.96 "Hg19 mi
9:00 PM62 °FPassing clouds.3 mph78%29.96 "Hg19 mi
8:00 PM67 °FPassing clouds.3 mph65%29.95 "Hg19 mi
7:00 PM70 °FPassing clouds.5 mph55%29.95 "Hg28 mi
6:00 PM73 °FPassing clouds.6 mph47%29.94 "Hg28 mi
5:00 PM75 °FPassing clouds.7 mph40%29.94 "Hg28 mi
Weather by CustomWeather, © 2014

See weather overviewHow to use our weather pages